TimePST,TemperatureF,Dew PointF,Humidity,Sea Level PressureIn,VisibilityMPH,Wind Direction,Wind SpeedMPH,Gust SpeedMPH,PrecipitationIn,Events,Conditions,WindDirDegrees,DateUTC
12:53 AM,43.0,26.1,51,30.22,10.0,Calm,Calm,-,N/A,,Clear,0,2013-02-12 08:53:00
1:53 AM,42.1,25.0,51,30.22,10.0,Calm,Calm,-,N/A,,Clear,0,2013-02-12 09:53:00
2:53 AM,42.1,25.0,51,30.22,10.0,Calm,Calm,-,N/A,,Clear,0,2013-02-12 10:53:00
3:53 AM,42.1,24.1,49,30.23,10.0,Calm,Calm,-,N/A,,Clear,0,2013-02-12 11:53:00
4:53 AM,41.0,21.9,47,30.25,10.0,Calm,Calm,-,N/A,,Clear,0,2013-02-12 12:53:00
5:53 AM,39.0,26.1,60,30.26,10.0,Calm,Calm,-,N/A,,Clear,0,2013-02-12 13:53:00
6:53 AM,39.9,25.0,55,30.28,10.0,Calm,Calm,-,N/A,,Clear,0,2013-02-12 14:53:00
7:53 AM,50.0,24.1,36,30.30,10.0,Calm,Calm,-,N/A,,Clear,0,2013-02-12 15:53:00
8:53 AM,57.9,24.1,27,30.32,10.0,Calm,Calm,-,N/A,,Clear,0,2013-02-12 16:53:00
9:53 AM,68.0,26.1,21,30.32,10.0,Calm,Calm,-,N/A,,Clear,0,2013-02-12 17:53:00
10:53 AM,73.9,25.0,16,30.31,10.0,Calm,Calm,-,N/A,,Clear,0,2013-02-12 18:53:00
11:53 AM,84.0,21.9,10,30.27,10.0,SSE,3.5,-,N/A,,Clear,150,2013-02-12 19:53:00
12:53 PM,63.1,19.0,18,30.25,10.0,ESE,5.8,-,N/A,,Clear,120,2013-02-12 20:53:00
1:53 PM,64.4,17.1,16,30.22,10.0,Variable,3.5,-,N/A,,Clear,0,2013-02-12 21:53:00
2:53 PM,64.4,28.9,26,30.20,10.0,SSW,10.4,16.1,N/A,,Clear,200,2013-02-12 22:53:00
3:53 PM,81.0,21.9,11,30.20,10.0,South,8.1,24.2,N/A,,Clear,190,2013-02-12 23:53:00
4:53 PM,59.0,21.0,23,30.21,10.0,South,6.9,-,N/A,,Clear,170,2013-02-13 00:53:00
5:53 PM,55.4,30.0,38,30.22,10.0,South,3.5,-,N/A,,Clear,170,2013-02-13 01:53:00
6:53 PM,61.0,35.1,38,30.23,10.0,Calm,Calm,-,N/A,,Clear,0,2013-02-13 02:53:00
7:53 PM,51.8,35.1,53,30.24,10.0,Calm,Calm,-,N/A,,Clear,0,2013-02-13 03:53:00
8:53 PM,48.2,30.0,49,30.25,10.0,Calm,Calm,-,N/A,,Clear,0,2013-02-13 04:53:00
9:53 PM,52.0,30.0,43,30.24,10.0,Calm,Calm,-,N/A,,Clear,0,2013-02-13 05:53:00
10:53 PM,46.6,31.1,55,30.24,10.0,Calm,Calm,-,N/A,,Clear,0,2013-02-13 06:53:00
11:53 PM,52.0,28.9,41,30.23,10.0,North,3.5,-,N/A,,Clear,350,2013-02-13 07:53:00